Regional Weather Roundup
Issued by NWS Memphis, TN

Home | Current Version | Previous Version | Text Only | Print | Product List | Glossary On
Versions: 1 2 3 4 5 6 7 8 9 10 11 12 13 14 15 16 17 18 19 20 21 22 23 24 25 26 27 28 29 30 31 32 33 34 35 36 37 38 39 40 41 42 43 44 45 46 47 48 49 50
000
ASUS44 KMEG 230710
RWRMEG
MEMPHIS CWA HOURLY WEATHER ROUNDUP
NATIONAL WEATHER SERVICE MEMPHIS TN
200 AM CDT SAT MAY 23 2015

...WEST TENNESSEE...

CITY           SKY/WX    TMP DP  RH WIND       PRES   REMARKS
MEMPHIS INTL   CLOUDY    66  48  52 E6        30.22S
NWS MEMPHIS      N/A     61 N/A N/A MISG        N/A
JACKSON        PTCLDY    53  51  93 CALM      30.24F
LEXINGTON      CLEAR     48  48 100 CALM      30.24S
DYERSBURG      MOCLDY    59  43  55 CALM      30.25R
PARIS          CLEAR     55  52  88 CALM      30.26R


...EASTERN ARKANSAS...

CITY           SKY/WX    TMP DP  RH WIND       PRES   REMARKS
JONESBORO      CLOUDY    60  54  80 N5        30.23S
WEST MEMPHIS   CLOUDY    63  54  72 CALM      30.22R
BATESVILLE     CLOUDY    59  54  82 CALM      30.24S
NEWPORT        CLOUDY    64  56  75 CALM      30.24S
WALNUT RIDGE   MOCLDY    63  54  72 NE6       30.24S
BLYTHEVILLE    CLOUDY    61  56  83 CALM      30.24R
SEARCY         CLOUDY    62  55  77 NE5       30.23F
STUTTGART      PTCLDY    64  55  72 NE6       30.21F
PINE BLUFF     PTCLDY    62  56  80 E3        30.19F
MONTICELLO     CLEAR     58  56  93 CALM      30.19S


...NORTH MISSISSIPPI...

CITY           SKY/WX    TMP DP  RH WIND       PRES   REMARKS
TUPELO         PTCLDY    58  52  80 E3        30.22F
OXFORD         PTCLDY    55  54  94 CALM      30.24S
OLIVE BRANCH   CLEAR     59  54  82 E5        30.23S
TUNICA         CLOUDY    61  54  77 E3        30.23R
CLARKSDALE       N/A     61  57  88 CALM      30.22S
CORINTH        PTCLDY    54  52  94 CALM      30.24S
GREENWOOD      PTCLDY    59  52  77 NE5       30.20F
COLUMBUS       CLEAR     54  46  75 N2        30.22S
STARKVILLE     FAIR      52  52 100 CALM      30.22S
GOLDEN TRIANGL CLEAR     57  54  88 NE3       30.21F


...SOUTHEAST MISSOURI...

CITY           SKY/WX    TMP DP  RH WIND       PRES   REMARKS
WEST PLAINS    CLOUDY    58  49  72 CALM      30.27S
POPLAR BLUFF   MOCLDY    59  56  89 CALM      30.24S
CAPE GIRARDEAU MOCLDY    59  57  93 CALM      30.25R


...NORTHWEST ALABAMA...

CITY           SKY/WX    TMP DP  RH WIND       PRES   REMARKS
MUSCLE SHOALS  CLEAR     54  50  86 CALM      30.26S


...MIDDLE TENNESSEE...

CITY           SKY/WX    TMP DP  RH WIND       PRES   REMARKS
NASHVILLE      PTCLDY    53  50  89 CALM      30.28R
CLARKSVILLE    PTCLDY    55  52  89 CALM      30.26F
COLUMBIA       CLEAR     48  48 100 CALM      30.25S


...WESTERN KENTUCKY...

CITY           SKY/WX    TMP DP  RH WIND       PRES   REMARKS
PADUCAH        PTCLDY    58  54  86 E3        30.25S
FORT CAMPBELL  PTCLDY    58  51  78 SE3       30.26R


...CENTRAL ARKANSAS...

CITY           SKY/WX    TMP DP  RH WIND       PRES   REMARKS
LITTLE ROCK    CLOUDY    62  56  80 N3        30.21F


SKY/WX REPORTED AS FAIR MEANS FEW OR NO CLOUDS BELOW
12 THOUSAND FEET.



USA.gov is the U.S. government's official web portal to all federal, state and local government web resources and services.